TimeCST,TemperatureF,Dew PointF,Humidity,Sea Level PressureIn,VisibilityMPH,Wind Direction,Wind SpeedMPH,Gust SpeedMPH,PrecipitationIn,Events,Conditions,WindDirDegrees,DateUTC
12:03 AM,62.6,60.8,94,29.98,5.0,East,3.5,-,N/A,,Mostly Cloudy,100,2013-02-11 06:03:00
12:06 AM,62.6,60.8,94,29.98,1.8,ESE,4.6,-,N/A,,Mostly Cloudy,110,2013-02-11 06:06:00
12:16 AM,60.8,60.8,100,29.98,0.5,Calm,Calm,-,N/A,Fog,Fog,0,2013-02-11 06:16:00
12:36 AM,62.6,60.8,94,29.97,2.0,Calm,Calm,-,N/A,,Overcast,0,2013-02-11 06:36:00
12:53 AM,62.1,61.0,96,29.98,0.8,Calm,Calm,-,N/A,,Mist,0,2013-02-11 06:53:00
1:42 AM,62.6,60.8,94,30.00,2.0,Calm,Calm,-,N/A,,Overcast,0,2013-02-11 07:42:00
1:46 AM,62.6,60.8,94,30.00,5.0,Calm,Calm,-,N/A,Thunderstorm,Overcast,0,2013-02-11 07:46:00
1:53 AM,62.1,60.1,93,30.01,9.0,Calm,Calm,-,N/A,Thunderstorm,Overcast,0,2013-02-11 07:53:00
2:35 AM,59.0,53.6,82,30.04,10.0,Variable,4.6,-,0.04,,Overcast,0,2013-02-11 08:35:00
2:42 AM,59.0,53.6,82,30.04,10.0,Variable,4.6,-,0.04,Thunderstorm,Overcast,0,2013-02-11 08:42:00
2:53 AM,59.0,53.1,81,30.04,10.0,Calm,Calm,-,0.04,,Overcast,0,2013-02-11 08:53:00
3:53 AM,60.1,55.0,83,30.01,10.0,Variable,3.5,-,N/A,,Overcast,0,2013-02-11 09:53:00
4:53 AM,57.0,48.9,74,30.04,10.0,Variable,5.8,-,0.02,Rain,Light Rain,0,2013-02-11 10:53:00
5:53 AM,55.9,48.9,77,30.09,10.0,East,3.5,-,0.00,,Overcast,80,2013-02-11 11:53:00
6:53 AM,54.0,50.0,86,30.11,6.0,Calm,Calm,-,0.05,Rain,Rain,0,2013-02-11 12:53:00
7:53 AM,53.1,50.0,89,30.11,10.0,Calm,Calm,-,0.04,,Overcast,0,2013-02-11 13:53:00
8:53 AM,54.0,51.1,90,30.12,10.0,ENE,3.5,-,0.00,,Overcast,70,2013-02-11 14:53:00
9:53 AM,52.0,48.0,86,30.12,10.0,ENE,9.2,-,0.05,Rain,Light Rain,70,2013-02-11 15:53:00
10:53 AM,52.0,50.0,93,30.08,5.0,East,9.2,-,0.05,Rain,Heavy Rain,80,2013-02-11 16:53:00
11:13 AM,53.6,51.8,94,30.12,10.0,ENE,8.1,-,0.03,Rain,Light Rain,70,2013-02-11 17:13:00
11:24 AM,53.6,51.8,94,30.12,10.0,East,6.9,-,0.03,,Overcast,80,2013-02-11 17:24:00
11:53 AM,53.1,51.1,93,30.11,10.0,East,5.8,-,0.03,,Overcast,100,2013-02-11 17:53:00
12:10 PM,53.6,51.8,94,30.12,10.0,East,4.6,-,0.01,Rain,Light Rain,100,2013-02-11 18:10:00
12:20 PM,53.6,51.8,94,30.10,10.0,East,8.1,-,0.01,Rain,Light Rain,90,2013-02-11 18:20:00
12:40 PM,53.6,50.0,88,30.11,10.0,NNE,3.5,-,0.02,Rain-Thunderstorm,Light Rain,30,2013-02-11 18:40:00
12:48 PM,53.6,50.0,88,30.11,4.0,NNE,3.5,-,0.04,Rain-Thunderstorm,Heavy Rain,30,2013-02-11 18:48:00
12:53 PM,53.1,50.0,89,30.13,4.0,Variable,3.5,-,0.05,Rain-Thunderstorm,Rain,0,2013-02-11 18:53:00
1:05 PM,53.6,50.0,88,30.10,2.0,ESE,8.1,-,0.09,Rain-Thunderstorm,Heavy Thunderstorms and Rain,110,2013-02-11 19:05:00
1:13 PM,53.6,51.8,94,30.10,3.0,Variable,3.5,-,0.11,Rain-Thunderstorm,Rain,0,2013-02-11 19:13:00
1:22 PM,53.6,51.8,94,30.09,9.0,Variable,4.6,-,0.11,Rain,Light Rain,0,2013-02-11 19:22:00
1:29 PM,53.6,51.8,94,30.09,10.0,Variable,3.5,-,0.11,Rain,Light Rain,0,2013-02-11 19:29:00
1:49 PM,53.6,51.8,94,30.09,10.0,Variable,5.8,-,0.11,Rain-Thunderstorm,Light Thunderstorms and Rain,0,2013-02-11 19:49:00
1:53 PM,53.1,51.1,93,30.11,5.0,Calm,Calm,-,0.13,Rain-Thunderstorm,Light Thunderstorms and Rain,0,2013-02-11 19:53:00
2:26 PM,51.8,50.0,94,30.03,6.0,ENE,9.2,-,0.14,Rain-Thunderstorm,Rain,70,2013-02-11 20:26:00
2:29 PM,51.8,50.0,94,30.05,7.0,ENE,9.2,17.3,0.14,Rain-Thunderstorm,Light Rain,60,2013-02-11 20:29:00
2:34 PM,51.8,50.0,94,30.04,9.0,East,9.2,17.3,0.14,Rain,Light Rain,80,2013-02-11 20:34:00
2:53 PM,53.1,50.0,89,30.11,10.0,Variable,3.5,-,0.15,Rain,Light Rain,0,2013-02-11 20:53:00
3:05 PM,53.6,51.8,94,30.09,10.0,Variable,3.5,-,0.00,,Overcast,0,2013-02-11 21:05:00
3:15 PM,53.6,51.8,94,30.07,10.0,ENE,4.6,-,0.00,,Overcast,60,2013-02-11 21:15:00
3:23 PM,53.6,50.0,88,30.06,10.0,NE,8.1,-,0.00,,Overcast,50,2013-02-11 21:23:00
3:41 PM,53.6,50.0,88,30.12,10.0,NW,6.9,-,0.00,Thunderstorm,Thunderstorm,310,2013-02-11 21:41:00
3:53 PM,53.1,50.0,89,30.11,5.0,Variable,3.5,-,0.03,Rain-Thunderstorm,Heavy Rain,0,2013-02-11 21:53:00
4:02 PM,53.6,51.8,94,30.11,6.0,NNE,4.6,-,0.01,Rain,Light Rain,30,2013-02-11 22:02:00
4:53 PM,53.1,50.0,89,30.10,10.0,Variable,4.6,-,0.05,,Overcast,0,2013-02-11 22:53:00
5:17 PM,53.6,50.0,88,30.11,10.0,Variable,4.6,-,0.02,Rain,Light Rain,0,2013-02-11 23:17:00
5:24 PM,53.6,50.0,88,30.11,10.0,Variable,6.9,-,0.02,Rain,Light Rain,0,2013-02-11 23:24:00
5:32 PM,51.8,50.0,94,30.09,7.0,NE,4.6,-,0.04,Rain,Rain,40,2013-02-11 23:32:00
5:53 PM,52.0,48.9,89,30.08,10.0,ENE,8.1,-,0.05,Rain,Light Rain,60,2013-02-11 23:53:00
6:07 PM,51.8,50.0,94,30.08,10.0,Variable,4.6,-,0.00,Rain,Light Rain,0,2013-02-12 00:07:00
6:53 PM,52.0,48.9,89,30.10,10.0,Variable,6.9,-,0.00,,Overcast,0,2013-02-12 00:53:00
7:33 PM,51.8,48.2,88,30.10,10.0,NE,4.6,-,0.00,,Overcast,50,2013-02-12 01:33:00
7:43 PM,51.8,48.2,88,30.09,10.0,Variable,4.6,-,0.00,,Overcast,0,2013-02-12 01:43:00
7:53 PM,52.0,48.9,89,30.08,10.0,NE,5.8,-,0.00,,Overcast,50,2013-02-12 01:53:00
8:22 PM,51.8,48.2,88,30.10,10.0,Variable,4.6,-,N/A,,Overcast,0,2013-02-12 02:22:00
8:53 PM,52.0,48.9,89,30.09,10.0,NE,6.9,-,N/A,,Overcast,50,2013-02-12 02:53:00
9:18 PM,51.8,48.2,88,30.10,10.0,NE,4.6,-,N/A,,Overcast,40,2013-02-12 03:18:00
9:32 PM,51.8,48.2,88,30.11,8.0,Variable,3.5,-,0.02,,Overcast,0,2013-02-12 03:32:00
9:40 PM,51.8,48.2,88,30.10,6.0,NE,5.8,-,0.04,Rain,Light Rain,50,2013-02-12 03:40:00
9:53 PM,52.0,48.9,89,30.09,7.0,ENE,6.9,-,0.06,Rain,Heavy Rain,60,2013-02-12 03:53:00
10:25 PM,51.8,50.0,94,30.09,10.0,ENE,3.5,-,0.02,Thunderstorm,Overcast,70,2013-02-12 04:25:00
10:36 PM,51.8,50.0,94,30.10,10.0,Variable,5.8,-,0.02,,Overcast,0,2013-02-12 04:36:00
10:53 PM,52.0,50.0,93,30.08,10.0,ENE,6.9,-,0.02,,Overcast,60,2013-02-12 04:53:00
11:18 PM,51.8,50.0,94,30.08,10.0,ENE,4.6,-,0.01,,Overcast,70,2013-02-12 05:18:00
11:53 PM,53.1,50.0,89,30.09,10.0,Calm,Calm,-,0.01,,Overcast,0,2013-02-12 05:53:00